Theta_e
299 302 304 304 305 306 301 299 298 302 307 312 318 317 320 324 328 331 331 334 331 330 330 331 332 335 336 337 338 340 340 339 338 339 338 337 338 340 339 335 337 340 338 338
301 306 307 305 307 308 307 309 314 312 310 315 317 318 318 322 327 329 333 333 333 332 333 333 334 334 335 334 333 334 333 334 336 335 336 336 334 333 333 340 337 339 340 341
298 305 306 302 306 308 310 309 313 309 312 315 314 316 319 329 334 331 331 330 330 330 332 332 332 332 331 333 332 330 332 334 333 333 332 333 334 335 336 333 331 328 329 331
297 302 293 303 313 314 312 313 316 319 318 318 317 319 330 333 329 329 329 329 329 330 329 329 330 329 330 331 330 327 329 330 330 328 326 325 326 327 326 326 326 328 328 328
298 297 301 309 312 310 306 308 318 320 322 324 329 330 328 333 332 329 330 329 329 328 327 327 325 325 326 324 324 328 323 321 322 323 323 324 323 323 323 324 325 326 328 329
299 296 294 304 313 318 315 301 318 324 322 322 321 315 319 330 330 329 330 330 329 328 326 325 324 322 320 319 320 320 321 322 323 323 323 322 322 323 323 324 325 325 324 325
298 297 301 309 315 319 303 304 317 325 325 322 316 318 322 332 329 330 330 328 327 325 321 319 318 319 318 319 319 321 322 322 323 323 322 323 321 321 321 321 322 321 322 323
298 296 296 313 312 307 311 315 324 325 322 322 322 322 327 330 328 328 324 325 324 320 317 318 320 320 319 319 320 321 321 321 321 322 323 324 320 319 320 319 318 318 318 318
301 301 309 312 309 313 314 317 323 326 329 326 325 324 327 327 322 322 320 319 318 317 317 319 320 319 317 320 321 321 319 318 319 320 320 320 318 318 318 318 316 314 313 310
303 306 310 313 314 317 325 325 327 329 328 329 326 328 319 319 318 315 316 316 316 316 317 318 319 319 318 319 320 319 317 317 317 316 316 315 315 316 313 312 311 311 311 310
302 307 311 314 315 322 325 327 326 327 327 324 320 317 317 314 313 314 313 314 317 318 316 316 317 316 316 316 316 315 314 314 312 313 312 311 312 312 313 314 312 312 312 310
298 304 309 310 317 322 319 317 317 316 316 318 317 315 316 315 313 315 316 317 317 316 315 314 312 311 312 312 313 310 310 310 310 309 309 310 310 311 313 310 307 305 304 304
308 312 311 315 317 317 313 314 314 313 314 313 315 315 314 315 317 316 315 314 313 313 312 309 309 308 309 310 310 309 307 310 312 312 313 311 310 310 310 313 310 307 304 302
314 314 312 314 312 314 314 313 313 313 313 314 314 314 317 315 314 312 311 310 311 309 308 307 308 307 310 310 310 312 313 311 313 313 312 312 312 313 314 313 312 313 310 306
308 311 313 313 313 312 312 312 311 310 312 312 313 313 313 312 309 308 309 310 310 308 308 308 308 308 310 310 310 309 309 308 309 314 313 312 313 314 315 314 313 313 313 310
310 311 313 311 309 309 310 310 309 309 311 311 310 310 311 311 310 310 310 310 307 306 308 308 308 308 310 309 308 308 308 312 312 310 312 313 314 314 315 315 315 315 313 312
310 308 308 308 309 309 310 311 313 312 313 311 310 310 311 310 310 310 311 311 308 309 310 309 308 309 309 309 308 308 307 306 310 308 308 312 313 312 314 314 314 312 311 311
312 312 312 311 311 311 312 313 314 312 311 310 310 310 309 307 306 307 309 309 308 308 309 309 309 309 308 309 309 308 306 305 305 306 307 311 311 312 312 313 311 309 307 308
314 312 313 314 314 313 313 314 315 314 312 311 310 310 310 308 308 307 307 307 306 306 309 310 315 317 309 309 313 308 306 305 306 306 307 310 310 311 312 312 309 307 306 307
312 313 313 312 314 312 314 315 317 316 313 311 310 308 307 307 308 307 307 306 307 309 311 312 315 314 309 310 316 310 307 305 305 305 306 306 306 307 308 304 305 307 307 308
310 311 311 311 310 311 314 316 315 313 311 310 309 307 307 308 308 307 306 305 308 311 311 315 313 310 309 311 311 308 305 304 304 303 303 303 303 304 303 302 303 306 306 307
309 309 310 310 310 310 313 313 311 311 310 309 310 308 307 306 306 307 308 308 311 311 310 309 310 311 310 314 308 306 306 306 305 304 305 304 302 306 306 305 302 305 306 306
310 310 312 312 312 311 312 312 311 310 309 306 306 306 306 306 306 306 305 309 309 309 307 307 309 313 313 310 307 306 309 307 306 304 304 304 304 305 306 305 305 306 306 305
309 308 308 309 308 308 310 312 312 312 310 309 308 309 309 308 308 309 312 310 310 310 307 308 310 310 310 306 305 307 307 309 309 306 307 304 305 302 305 305 304 305 305 304
309 308 307 305 303 302 307 311 311 310 309 309 311 308 307 308 310 312 311 310 308 307 306 307 309 309 308 306 306 307 308 308 308 305 308 305 303 302 302 302 302 303 304 304
309 311 308 307 306 306 310 309 307 307 305 306 306 307 308 307 306 307 307 307 307 307 306 306 308 308 309 305 306 306 307 306 307 305 306 303 303 303 303 302 302 303 305 304
308 307 307 307 308 309 310 310 307 306 304 305 305 303 307 308 308 307 307 307 308 306 308 308 307 308 311 309 308 308 308 312 305 307 304 303 304 304 304 304 303 305 304 304
Wind_Speed
5 5 4 5 7 10 6 3 4 6 12 14 15 18 15 9 15 16 6 14 5 9 7 8 8 12 12 12 9 10 13 12 9 7 8 8 3 10 5 4 4 2 2 6
5 8 8 8 8 9 4 5 7 6 6 5 6 6 4 9 13 15 11 5 7 10 11 8 8 11 11 12 11 12 13 9 3 3 6 5 7 7 2 5 5 3 5 6
6 6 6 6 7 4 3 2 6 4 3 18 7 12 9 10 11 9 7 9 8 9 7 3 3 4 7 6 4 9 7 4 3 6 1 3 2 4 4 3 5 5 5 5
3 6 1 4 6 5 8 4 7 6 11 15 10 6 5 12 12 11 8 8 5 6 5 2 2 4 4 5 4 4 5 3 3 4 4 4 4 4 2 2 1 1 1 4
2 3 5 0 2 1 3 7 9 6 14 16 17 18 12 10 13 20 4 6 7 4 7 5 4 4 5 2 5 7 6 4 4 5 6 6 7 6 4 3 3 4 4 4
5 5 7 4 7 6 5 3 12 3 13 23 13 11 7 11 18 17 17 7 8 8 5 6 2 5 7 7 7 6 5 4 4 4 4 5 5 5 3 4 5 5 6 5
4 4 4 4 8 8 5 7 7 4 15 9 4 3 9 12 15 15 15 9 7 7 8 6 4 7 8 6 5 3 2 4 5 5 5 5 4 4 4 5 6 6 6 6
3 4 4 3 4 7 7 2 2 7 6 7 11 8 10 11 9 6 12 11 9 8 7 5 5 6 5 4 2 2 3 5 5 6 5 5 6 5 6 6 6 6 5 5
6 7 7 4 5 5 5 6 3 11 7 8 10 7 6 9 7 6 10 9 5 8 8 3 3 5 4 2 2 3 3 3 4 5 6 6 6 7 5 6 5 5 3 4
3 5 7 4 3 2 7 11 12 14 15 11 12 9 10 7 7 7 8 8 6 8 7 5 6 8 6 6 6 6 5 6 6 6 7 7 5 5 4 5 4 4 5 5
4 4 1 4 4 7 9 12 15 15 16 18 16 11 11 7 6 6 6 6 6 8 8 7 6 7 6 7 6 6 5 5 5 4 5 5 5 5 5 6 6 4 5 4
6 6 5 5 8 11 14 15 17 21 16 12 15 14 13 8 4 6 7 7 9 7 8 5 6 6 5 4 4 2 3 3 3 4 4 4 5 5 7 9 11 12 13 8
4 1 5 8 9 15 16 14 17 20 19 18 11 13 10 10 7 9 8 8 8 7 5 5 4 4 2 2 1 2 3 4 3 4 4 4 5 6 7 8 10 14 15 15
3 6 7 7 9 13 18 15 15 14 13 12 11 9 11 10 9 9 7 6 6 5 4 4 3 3 5 4 4 3 4 8 4 4 4 6 7 7 6 6 8 9 8 9
2 4 6 9 9 11 15 16 14 12 11 11 10 12 11 11 9 8 8 7 6 5 5 5 4 5 4 3 3 4 4 4 4 4 4 6 6 6 7 7 6 7 8 7
5 8 9 13 11 9 12 10 14 7 8 7 8 8 9 9 8 7 7 7 5 3 6 7 7 5 5 4 5 5 5 9 7 5 5 5 5 6 7 7 6 6 5 6
7 6 8 9 8 7 6 7 9 8 7 7 8 7 7 7 7 7 6 6 5 3 6 7 8 6 6 6 6 5 4 5 8 4 4 6 4 5 6 6 5 5 6 7
13 12 12 13 11 10 8 6 5 9 5 7 7 8 8 8 7 6 6 1 3 3 5 7 7 7 7 7 7 5 5 5 5 4 4 5 6 6 6 6 5 5 6 8
12 16 14 15 14 13 11 10 8 5 5 5 7 6 6 6 5 3 1 2 3 5 8 6 13 12 8 9 8 5 5 5 5 4 4 6 6 5 6 6 6 5 7 9
12 12 14 13 11 11 9 6 8 5 7 6 7 7 4 5 5 4 3 5 6 6 7 8 8 6 7 10 10 5 5 5 6 5 4 4 4 6 6 5 5 8 9 8
5 6 8 9 10 10 8 8 7 8 5 7 8 7 8 6 4 2 2 3 9 7 7 8 6 5 5 6 6 5 5 5 5 5 5 5 5 5 4 5 5 6 8 7
4 5 6 6 5 5 1 4 6 7 7 5 4 4 3 4 4 3 6 8 7 9 5 5 5 8 7 12 3 5 5 6 6 4 5 5 5 6 4 4 5 6 7 6
4 5 6 5 5 3 3 3 4 7 6 5 5 5 5 4 4 2 5 7 5 6 4 6 6 9 12 5 5 5 5 6 6 6 6 4 5 4 3 4 5 6 6 6
4 5 4 4 3 4 5 3 4 3 2 5 6 7 5 4 5 5 7 7 8 7 5 5 6 9 9 4 5 5 5 6 5 5 4 5 3 2 3 4 5 5 5 6
4 3 3 3 3 2 4 2 2 4 6 7 5 5 6 3 6 5 2 4 6 6 6 8 11 13 5 4 5 4 4 6 5 4 4 3 2 3 4 4 4 5 5 5
4 4 4 6 4 3 3 3 3 4 3 4 4 5 4 3 1 3 1 4 5 6 5 5 5 5 5 5 3 3 2 3 3 4 4 2 3 4 3 4 5 4 4 4
2 3 2 2 3 4 4 5 4 5 4 3 3 2 4 3 1 1 2 4 5 5 5 4 4 5 5 3 2 4 4 4 5 3 4 4 4 4 4 4 5 5 3 3
Wind_Direction
225 225 261 265 277 301 239 143 124 224 153 177 163 149 167 154 153 141 218 241 106 87 82 73 90 97 95 85 67 80 87 86 71 94 41 353 9 97 350 314 108 358 325 299
338 354 349 301 301 309 52 23 69 71 82 178 168 83 268 145 169 171 188 117 67 66 55 23 44 61 76 90 90 92 88 73 100 79 57 320 325 59 167 276 279 39 339 8
291 333 351 352 325 104 155 200 134 89 187 161 151 146 161 199 173 147 134 88 77 76 68 48 13 20 45 50 69 86 85 79 98 71 54 262 271 55 53 0 8 11 336 354
250 341 330 183 305 9 103 10 31 75 126 152 163 145 126 133 127 103 106 101 121 110 111 113 148 123 112 94 82 112 104 86 46 53 28 1 16 13 1 230 322 257 348 350
177 204 292 274 31 352 0 73 10 121 112 120 117 94 70 120 126 128 167 156 154 166 142 144 154 146 143 148 80 69 47 50 43 36 25 10 3 350 336 357 356 349 0 357
141 190 225 223 289 281 163 179 16 167 148 140 160 110 155 136 141 139 147 188 169 174 163 132 184 116 85 75 69 66 61 45 45 40 34 3 343 339 316 340 340 344 328 307
178 195 301 256 291 309 115 237 337 203 176 161 151 153 147 134 143 148 132 147 167 137 118 120 115 80 78 83 80 108 71 44 23 9 352 338 334 323 325 326 324 317 314 309
109 88 261 310 335 104 220 60 206 98 119 103 123 127 145 152 121 120 127 145 127 109 86 86 90 91 93 101 168 88 48 29 358 343 334 331 332 316 322 317 316 313 310 312
161 208 229 279 160 200 193 133 114 123 126 150 136 145 173 132 113 102 102 90 92 101 97 85 95 107 109 289 91 80 39 355 329 331 332 336 332 320 324 327 322 312 310 299
90 250 228 266 261 101 89 118 118 125 129 124 119 116 81 97 112 92 99 106 100 98 92 72 54 56 57 41 38 49 32 9 1 3 348 340 332 322 315 307 297 291 297 292
301 41 65 242 272 137 118 110 102 107 124 111 112 105 112 114 108 117 111 88 82 90 84 77 75 63 50 41 36 33 9 358 350 338 329 307 287 273 286 276 236 264 276 255
231 233 173 207 148 141 121 116 112 110 103 104 116 122 119 109 79 78 74 88 82 77 83 70 64 54 31 28 46 26 333 330 320 314 303 293 295 306 293 283 293 297 285 256
252 208 205 118 130 126 115 122 118 115 120 123 123 124 114 116 116 101 103 89 92 105 106 92 67 43 340 328 355 326 300 295 293 289 306 301 308 303 300 304 293 291 289 284
60 76 57 153 143 124 117 114 107 107 108 112 115 101 110 112 112 108 105 114 120 113 110 105 63 329 296 312 319 314 301 280 271 253 285 309 305 300 289 290 305 309 284 269
61 191 155 107 107 118 122 124 117 111 115 111 120 129 133 137 138 145 144 139 144 147 172 180 204 249 257 268 283 297 295 291 292 276 287 281 282 278 273 280 275 277 292 296
89 102 126 127 122 108 107 106 111 122 127 126 127 129 139 143 147 148 152 148 141 203 235 206 216 230 237 249 265 275 272 274 272 285 294 266 279 297 293 278 284 298 302 283
87 73 83 65 68 74 99 138 145 157 138 139 144 142 132 121 120 138 178 179 174 152 201 192 226 231 234 236 242 248 255 269 274 274 281 291 282 293 304 301 300 297 297 301
94 95 101 109 107 89 57 55 97 115 125 135 113 113 116 118 143 171 200 121 10 328 220 239 241 238 240 243 239 244 253 274 279 261 279 296 296 290 285 283 283 286 300 301
96 107 110 108 110 98 83 65 33 36 102 119 102 127 135 145 163 183 74 322 292 296 280 241 235 232 232 248 248 239 247 279 275 278 275 283 294 294 290 287 289 297 303 308
114 116 116 114 103 108 111 101 125 233 222 111 113 118 145 198 199 211 212 260 251 237 264 262 239 230 238 256 266 233 241 261 257 262 267 271 283 291 295 297 306 314 309 304
63 93 121 130 130 128 139 154 197 206 149 132 142 181 200 223 233 248 341 301 277 272 268 261 245 248 254 262 253 233 248 263 250 253 262 271 275 269 284 300 293 306 305 307
102 91 87 91 126 140 230 206 151 137 147 126 142 173 200 252 287 292 231 219 264 266 252 263 255 257 261 263 244 253 255 255 256 248 257 258 263 274 271 284 288 299 297 299
140 131 117 110 108 84 49 53 158 149 141 164 188 201 221 238 234 218 277 277 244 286 278 259 260 278 280 261 251 255 262 266 267 247 241 255 270 257 262 287 289 293 299 301
123 121 121 124 112 82 71 18 70 27 257 221 220 222 220 268 296 223 248 301 310 288 272 267 273 290 277 252 269 260 255 262 278 269 243 253 262 278 291 276 289 298 300 299
181 163 130 131 135 166 173 216 30 260 290 276 280 292 269 214 199 263 287 267 247 280 299 295 287 286 270 253 261 259 261 268 273 218 198 187 224 232 259 291 293 292 296 303
193 161 188 194 204 207 205 181 228 258 266 285 290 268 259 235 321 96 323 288 310 300 291 296 302 307 287 262 239 247 300 310 188 178 166 206 236 248 266 282 282 281 292 303
144 165 196 219 234 229 215 228 196 243 238 260 247 302 226 254 123 167 280 330 312 299 292 301 302 325 330 17 18 269 241 268 242 201 200 220 230 240 254 270 284 291 295 320